Location: *
(2.5500°S, 65.9667°W)
Time: 11:22:28
(UTC+00:00)

Cosmos 1980 - Pass Details

Date: 26 October 2021
Orbit: 839 x 847 km, 71.0° (Epoch: 28 November)

Event Time Altitude Azimuth Distance (km) Brightness Sun altitude
Rises 22:40:41 0° 178° (S) 3,396 7.0 -7.4°
Reaches altitude 10° 22:43:24 10° 168° (SSE) 2,457 6.1 -8.1°
Maximum altitude 22:48:21 32° 106° (ESE) 1,409 4.4 -9.3°
Drops below altitude 10° 22:53:17 10° 44° (NE) 2,444 5.6 -10.5°
Enters shadow 22:54:02 - 41° (NE) 2,699 5.8 -10.7°
